Date String (YYYY-MM-DD hh:mm:ss) UTC,Instrument flags,absolute air pressure of the measurement (hPa),sample flow rate (lpm),inlet stack bypass flow (lpm),air temperature of the measurement (°C),ambient temperature measured by the external sensor (°C),aerosol sample conditioner tube jacket temperature (°C),OPC LED temperature (°C),internal box temperature (°C),relative humidity of the measurement (%),span deviation,mass concentration of particles derived from Lorenz-Mie calculation of OPC scattering (μg/m³),mass concentration of particles derived from Lorenz-Mie calculation of OPC scattering (μg/m³),mass concentration of particles derived from Lorenz-Mie calculation of OPC scattering (μg/m³)
DateTimeUTC,F1_M11,P_M11,Q1_M11,Q2_M11,T1_M11,T2_M11,T3_M11,T4_M11,T5_M11,U1_M11,ZSPAN_M11,X2_M11,X0_M11,X1_M11
2023-09-16 12:00:00,SystemResetWarning,0836.3,5.01,000.00,026.6,025.0,000.0,035.0,028.2,19.8,0000.0,0004.10,0008.62,0003.71
2023-09-16 12:01:00,SystemResetWarning,0836.3,5.00,000.00,026.6,025.0,000.0,035.0,028.1,19.8,0000.0,0004.09,0008.44,0003.71
2023-09-16 12:02:00,SystemResetWarning,0836.3,5.00,000.00,026.6,025.0,000.0,035.0,028.1,19.8,0000.0,0004.08,0008.10,0003.70
2023-09-16 12:03:00,SystemResetWarning,0836.3,5.00,000.00,026.5,025.0,000.0,035.0,028.1,19.8,0000.0,0004.05,0007.68,0003.69
2023-09-16 12:04:00,SystemResetWarning,0836.3,5.00,000.00,026.5,025.0,000.0,035.0,028.1,19.9,0000.0,0004.05,0007.70,0003.68
2023-09-16 12:05:00,SystemResetWarning,0836.3,5.00,000.00,026.5,025.0,000.0,035.0,028.1,19.9,0000.0,0004.09,0007.79,0003.67
2023-09-16 12:06:00,SystemResetWarning,0836.4,5.00,000.00,026.5,025.0,000.0,035.0,028.1,19.8,0000.0,0004.09,0007.76,0003.67
2023-09-16 12:07:00,SystemResetWarning,0836.4,5.00,000.00,026.5,024.9,000.0,035.0,028.1,19.8,0000.0,0004.08,0007.74,0003.66
2023-09-16 12:08:00,SystemResetWarning,0836.3,4.99,000.00,026.5,024.9,000.0,035.0,028.1,19.8,0000.0,0004.05,0007.62,0003.65
2023-09-16 12:09:00,SystemResetWarning,0836.4,5.00,000.00,026.5,024.9,000.0,035.0,028.1,19.5,0000.0,0004.04,0007.25,0003.64
2023-09-16 12:10:00,SystemResetWarning,0836.4,4.99,000.00,026.5,024.9,000.0,035.0,028.1,19.4,0000.0,0004.04,0007.13,0003.64
2023-09-16 12:11:00,SystemResetWarning,0836.4,5.00,000.00,026.5,024.9,000.0,035.0,028.1,19.6,0000.0,0004.02,0007.08,0003.64
2023-09-16 12:12:00,SystemResetWarning,0836.4,4.99,000.00,026.5,025.0,000.0,035.0,028.1,19.8,0000.0,0003.98,0006.82,0003.62
2023-09-16 12:13:00,SystemResetWarning,0836.4,5.00,000.00,026.5,025.0,000.0,035.0,028.1,20.2,0000.0,0003.96,0006.61,0003.63
2023-09-16 12:14:00,SystemResetWarning,0836.4,5.00,000.00,026.5,025.0,000.0,035.0,028.1,20.3,0000.0,0003.98,0006.29,0003.63
2023-09-16 12:15:00,SystemResetWarning,0836.4,5.00,000.00,026.5,025.0,000.0,035.0,028.1,20.2,0000.0,0003.99,0006.20,0003.64
2023-09-16 12:16:00,SystemResetWarning,0836.5,5.00,000.00,026.5,025.0,000.0,035.0,028.1,20.2,0000.0,0003.95,0006.08,0003.63
2023-09-16 12:17:00,SystemResetWarning,0836.5,5.00,000.00,026.5,025.0,000.0,035.0,028.1,20.2,0000.0,0003.91,0005.96,0003.61
2023-09-16 12:18:00,SystemResetWarning,0836.5,5.01,000.00,026.5,025.0,000.0,035.0,028.2,20.2,0000.0,0003.91,0005.94,0003.62
2023-09-16 12:19:00,SystemResetWarning,0836.5,4.99,000.00,026.5,025.0,000.0,035.0,028.2,20.2,0000.0,0003.95,0006.09,0003.63
2023-09-16 12:20:00,SystemResetWarning,0836.6,4.99,000.00,026.5,025.0,000.0,035.0,028.2,20.1,0000.0,0003.96,0006.35,0003.64
2023-09-16 12:21:00,SystemResetWarning,0836.6,5.00,000.00,026.5,025.0,000.0,035.0,028.1,20.0,0000.0,0003.93,0006.58,0003.63
2023-09-16 12:22:00,SystemResetWarning,0836.6,5.02,000.00,026.5,025.0,000.0,035.0,028.1,19.6,0000.0,0003.92,0006.50,0003.62
2023-09-16 12:23:00,SystemResetWarning,0836.6,5.00,000.00,026.5,025.0,000.0,035.0,028.1,19.4,0000.0,0003.95,0006.67,0003.62
2023-09-16 12:24:00,SystemResetWarning,0836.6,4.99,000.00,026.5,025.0,000.0,035.0,028.1,19.6,0000.0,0003.96,0006.79,0003.61
2023-09-16 12:25:00,SystemResetWarning,0836.6,4.99,000.00,026.5,025.0,000.0,035.0,028.1,19.1,0000.0,0003.98,0006.91,0003.61
2023-09-16 12:26:00,SystemResetWarning,0836.6,5.01,000.00,026.5,025.0,000.0,035.0,028.1,19.2,0000.0,0003.97,0006.90,0003.61
2023-09-16 12:27:00,SystemResetWarning,0836.6,5.00,000.00,026.5,024.9,000.0,035.0,028.1,19.5,0000.0,0003.96,0006.94,0003.62
2023-09-16 12:28:00,SystemResetWarning,0836.6,5.01,000.00,026.5,024.9,000.0,035.0,028.1,19.7,0000.0,0003.96,0006.85,0003.63
2023-09-16 12:29:00,SystemResetWarning,0836.6,4.99,000.00,026.5,025.0,000.0,035.0,028.1,19.8,0000.0,0003.97,0006.91,0003.62
2023-09-16 12:30:00,SystemResetWarning,0836.7,4.99,000.00,026.5,025.0,000.0,035.0,028.1,19.8,0000.0,0003.95,0007.14,0003.62
2023-09-16 12:31:00,SystemResetWarning,0836.6,4.99,000.00,026.5,024.9,000.0,035.0,028.1,19.7,0000.0,0003.95,0007.16,0003.61
2023-09-16 12:32:00,SystemResetWarning,0836.7,5.00,000.00,026.5,024.9,000.0,035.0,028.1,19.6,0000.0,0003.97,0006.81,0003.61
2023-09-16 12:33:00,SystemResetWarning,0836.8,5.00,000.00,026.5,024.9,000.0,035.0,028.0,19.6,0000.0,0003.98,0006.84,0003.62
2023-09-16 12:34:00,SystemResetWarning,0836.8,5.00,000.00,026.5,024.9,000.0,035.0,028.0,19.6,0000.0,0003.99,0006.81,0003.63
2023-09-16 12:35:00,SystemResetWarning,0836.8,5.00,000.00,026.5,024.9,000.0,035.0,028.0,19.5,0000.0,0003.97,0006.70,0003.63
2023-09-16 12:36:00,SystemResetWarning,0836.8,5.01,000.00,026.5,024.9,000.0,034.9,028.1,19.4,0000.0,0003.94,0006.65,0003.62
2023-09-16 12:37:00,SystemResetWarning,0836.8,5.00,000.00,026.5,024.9,000.0,034.9,028.0,19.6,0000.0,0003.95,0006.74,0003.61
2023-09-16 12:38:00,SystemResetWarning,0836.8,5.00,000.00,026.5,024.9,000.0,034.9,028.0,19.6,0000.0,0003.98,0006.80,0003.61
2023-09-16 12:39:00,SystemResetWarning,0836.9,5.00,000.00,026.5,024.9,000.0,034.9,028.0,19.6,0000.0,0003.99,0007.00,0003.62
2023-09-16 12:40:00,SystemResetWarning,0836.9,5.00,000.00,026.5,024.9,000.0,034.9,028.0,19.6,0000.0,0003.98,0006.93,0003.62
2023-09-16 12:41:00,SystemResetWarning,0836.9,5.00,000.00,026.4,024.9,000.0,034.9,028.0,19.6,0000.0,0003.99,0006.70,0003.62
2023-09-16 12:42:00,SystemResetWarning,0836.9,5.00,000.00,026.4,024.9,000.0,034.9,028.0,19.4,0000.0,0004.00,0006.66,0003.62
2023-09-16 12:43:00,SystemResetWarning,0836.9,5.00,000.00,026.4,024.9,000.0,034.9,028.0,19.2,0000.0,0003.98,0006.81,0003.62
2023-09-16 12:44:00,SystemResetWarning,0836.8,4.99,000.00,026.4,024.8,000.0,034.9,028.0,19.1,0000.0,0003.98,0007.34,0003.62
2023-09-16 12:45:00,SystemResetWarning,0836.9,5.00,000.00,026.4,024.8,000.0,034.9,028.0,19.1,0000.0,0003.99,0007.38,0003.61
2023-09-16 12:46:00,SystemResetWarning,0836.8,5.00,000.00,026.4,024.8,000.0,034.9,028.0,19.2,0000.0,0004.02,0007.49,0003.61
2023-09-16 12:47:00,SystemResetWarning,0836.9,5.01,000.00,026.4,024.8,000.0,034.9,028.0,19.2,0000.0,0004.02,0007.48,0003.62
2023-09-16 12:48:00,SystemResetWarning,0836.9,5.00,000.00,026.4,024.8,000.0,034.9,027.9,19.1,0000.0,0004.01,0007.45,0003.62
2023-09-16 12:49:00,SystemResetWarning,0837.0,5.00,000.00,026.4,024.8,000.0,034.9,027.9,19.0,0000.0,0003.98,0007.31,0003.61
2023-09-16 12:50:00,SystemResetWarning,0837.0,4.99,000.00,026.4,024.8,000.0,034.9,028.0,19.1,0000.0,0003.95,0007.12,0003.60
2023-09-16 12:51:00,SystemResetWarning,0837.0,4.99,000.00,026.4,024.8,000.0,034.9,028.0,19.1,0000.0,0003.94,0007.11,0003.59
2023-09-16 12:52:00,SystemResetWarning,0837.0,5.00,000.00,026.4,024.8,000.0,034.9,028.0,19.1,0000.0,0003.93,0007.04,0003.59
2023-09-16 12:53:00,SystemResetWarning,0836.9,5.02,000.00,026.4,024.8,000.0,034.9,028.0,19.1,0000.0,0003.91,0007.09,0003.59
2023-09-16 12:54:00,SystemResetWarning,0836.9,5.00,000.00,026.4,024.8,000.0,034.9,028.0,19.2,0000.0,0003.89,0006.89,0003.58
2023-09-16 12:55:00,SystemResetWarning,0836.9,4.99,000.00,026.4,024.8,000.0,034.9,028.0,19.2,0000.0,0003.91,0006.32,0003.58
2023-09-16 12:56:00,SystemResetWarning,0836.9,5.00,000.00,026.4,024.8,000.0,034.9,028.0,19.3,0000.0,0003.92,0006.32,0003.58
2023-09-16 12:57:00,SystemResetWarning,0837.0,5.01,000.00,026.4,024.8,000.0,034.9,027.9,19.3,0000.0,0003.91,0006.12,0003.59
2023-09-16 12:58:00,SystemResetWarning,0837.0,5.00,000.00,026.4,024.8,000.0,034.9,027.9,19.2,0000.0,0003.90,0005.96,0003.60
2023-09-16 12:59:00,SystemResetWarning,0837.0,5.00,000.00,026.4,024.8,000.0,034.9,027.9,19.0,0000.0,0003.89,0005.90,0003.59
